SCP
7 7 7 7 7 7 7 7 6 5 4 3 3 2 2 2 1 1 1 0 0 0 0 0 1 0 0 0 0 0 0 0 0 0 0 0 0 0 0 0 0 0 0
7 7 7 7 7 8 8 7 6 5 4 3 3 2 2 1 1 0 0 0 0 0 0 0 0 0 0 0 0 0 0 0 0 0 0 0 0 0 0 0 0 0 0
6 6 6 7 7 8 8 8 6 5 5 4 3 2 1 0 0 0 0 0 0 0 0 0 0 0 0 0 0 0 0 0 0 0 0 0 0 0 0 0 0 0 0
5 5 6 6 6 7 7 7 6 5 5 4 3 1 1 0 0 0 0 0 0 0 0 0 0 0 0 0 0 0 0 0 0 0 0 0 0 0 0 0 0 0 0
5 5 5 5 5 6 6 6 6 5 5 4 3 2 1 0 0 0 0 0 0 0 0 0 0 0 0 0 0 0 0 0 0 0 0 0 0 0 0 0 0 0 0
5 5 4 4 4 5 5 5 5 5 4 3 2 2 1 0 0 0 0 0 0 0 0 0 0 0 0 0 0 0 0 0 0 0 0 0 0 0 0 0 0 0 0
4 4 4 3 3 3 4 4 4 3 2 2 1 1 0 0 0 0 0 0 0 0 0 0 0 0 0 0 0 0 0 0 0 0 0 0 0 0 0 0 0 0 0
3 3 3 2 2 2 2 2 2 1 1 1 1 0 0 0 0 0 0 0 0 0 0 0 0 0 0 0 0 0 0 0 0 0 0 0 0 0 0 0 0 0 0
3 3 2 2 1 1 1 1 0 0 0 0 0 0 0 0 0 0 0 0 0 0 0 0 0 0 0 0 0 0 0 0 0 0 0 0 0 0 0 0 0 0 0
4 3 2 1 1 1 0 0 0 0 0 0 0 0 0 0 0 0 0 0 0 0 0 0 0 0 0 0 0 0 0 0 0 0 0 0 0 0 0 0 0 0 0
4 3 2 1 1 1 0 0 0 0 0 0 0 0 0 0 0 0 0 0 0 0 0 0 0 0 0 0 0 0 0 0 0 0 0 0 0 0 0 0 0 0 0
3 2 1 1 1 0 0 0 0 0 0 0 0 0 0 0 0 0 0 0 0 0 0 0 0 0 0 0 0 0 0 0 0 0 0 0 0 0 0 0 0 0 0
3 2 1 1 1 1 0 0 0 0 0 0 0 0 0 0 0 0 0 0 0 0 0 0 0 0 0 0 0 0 0 0 0 0 0 0 0 0 0 0 0 0 0
3 2 1 1 1 0 0 0 0 0 0 0 0 0 0 0 0 0 0 0 0 0 0 0 0 0 0 0 0 0 0 0 0 0 0 0 0 0 0 0 0 0 0
3 2 1 1 1 0 0 0 0 0 0 0 0 0 0 0 0 0 0 0 0 0 0 0 0 0 0 0 0 0 0 0 0 0 0 0 0 0 0 0 0 0 0
3 2 1 1 0 0 0 0 0 0 0 0 0 0 0 0 0 0 0 0 0 0 0 0 0 0 0 0 0 0 0 0 0 0 0 0 0 0 0 0 0 0 0
2 1 1 0 0 0 0 0 0 0 0 0 0 0 0 0 0 0 0 0 0 0 0 0 0 0 0 0 0 0 0 0 0 0 0 0 0 0 0 0 0 0 0
1 1 0 0 0 0 0 0 0 0 0 0 0 0 0 0 0 0 0 0 0 0 0 0 0 0 0 0 0 0 0 0 0 0 0 0 0 0 0 0 0 0 0
0 0 0 0 0 0 0 0 0 0 0 0 0 0 0 0 0 0 0 0 0 0 0 0 0 0 0 0 0 0 0 0 0 0 0 0 0 0 0 0 0 0 0
0 0 0 0 0 0 0 0 0 0 0 0 0 0 0 0 0 0 0 0 0 0 0 0 0 0 0 0 0 0 0 0 0 0 0 0 0 0 0 0 0 0 0
0 0 0 0 0 0 0 0 0 0 0 0 0 0 0 0 0 0 0 0 0 0 0 0 0 0 0 0 0 0 0 0 0 0 0 0 0 0 0 0 0 0 0
0 0 0 0 0 0 0 0 0 0 0 0 0 0 0 0 0 0 0 0 0 0 0 0 0 0 0 0 0 0 0 0 0 0 0 0 0 0 0 0 0 0 0
0 0 0 0 0 0 0 0 0 0 0 0 0 0 0 0 0 0 0 0 0 0 0 0 0 0 0 0 0 0 0 0 0 0 0 0 0 0 0 0 0 0 0
0 0 0 0 0 0 0 0 0 0 0 0 0 0 0 0 0 0 0 0 0 0 0 0 0 0 0 0 0 0 0 0 0 0 0 0 0 0 0 0 0 0 0
0 0 0 0 0 0 0 0 0 0 0 0 0 0 0 0 0 0 0 0 0 0 0 0 0 0 0 0 0 0 0 0 0 0 0 0 0 0 0 0 0 0 0
0 0 0 0 0 0 0 0 0 0 0 0 0 0 0 0 0 0 0 0 0 0 0 0 0 0 0 0 0 0 0 0 0 0 0 0 0 0 0 0 0 0 0
Wind_Speed
11 10 9 10 10 10 11 11 11 11 9 7 7 7 6 6 6 7 8 8 7 7 6 4 4 4 4 4 4 4 4 4 4 7 8 9 10 8 6 6 7 8 9
12 11 10 10 11 11 11 11 11 11 9 7 6 5 7 6 6 6 7 7 7 6 4 4 2 3 1 1 2 3 5 5 4 6 9 10 9 7 4 4 7 9 9
15 13 12 11 11 11 11 9 10 9 9 9 7 8 6 6 6 5 5 5 5 5 4 3 2 2 3 2 3 4 4 6 6 4 7 8 8 9 6 6 7 8 9
15 14 14 13 11 10 10 10 10 10 9 9 8 8 6 5 5 3 4 4 3 3 3 2 2 3 3 3 4 4 5 5 6 4 3 5 8 8 8 8 8 10 11
14 14 13 13 12 11 10 10 11 10 9 8 9 7 6 5 5 4 4 2 3 2 2 2 2 3 3 3 4 3 5 4 5 6 5 6 6 9 10 11 10 11 11
13 13 12 13 12 11 10 10 11 11 9 9 8 7 8 6 5 3 2 1 1 0 1 2 3 3 3 3 3 3 3 3 4 5 6 7 7 8 10 12 12 12 11
14 14 15 14 13 13 12 11 12 11 10 9 8 8 7 6 5 2 2 1 1 1 1 3 3 3 3 3 4 4 4 4 4 5 6 7 8 8 10 12 13 14 12
15 16 16 15 15 14 13 12 12 11 11 10 9 7 6 3 4 3 2 1 3 3 3 3 4 4 4 4 4 5 4 4 6 7 7 8 9 8 10 11 12 14 13
16 16 17 16 16 15 14 13 12 11 10 10 9 7 6 5 4 2 1 1 2 3 3 4 5 5 5 5 6 6 6 6 8 9 9 9 9 9 10 10 11 12 14
16 17 17 16 15 14 13 12 11 11 10 10 7 6 6 4 2 1 2 3 4 4 5 6 6 6 6 6 7 8 6 8 9 8 10 10 10 10 11 11 11 11 12
18 17 16 16 16 14 13 12 12 11 10 9 8 6 4 3 1 2 3 3 4 5 6 6 7 7 7 7 7 9 9 10 11 11 12 13 13 12 11 12 12 12 11
17 17 17 17 16 15 14 13 12 11 9 9 7 6 3 1 2 3 4 5 5 6 7 7 8 8 8 8 9 11 11 12 13 13 14 14 12 14 13 12 13 12 12
15 16 16 16 16 15 13 13 11 10 9 8 6 4 2 1 2 3 4 5 6 7 8 8 9 9 10 10 10 11 12 13 13 14 14 15 15 15 13 13 13 11 11
15 15 15 15 14 13 13 12 11 9 8 6 5 3 1 1 3 4 5 6 7 8 9 9 10 10 11 11 11 11 13 13 13 14 14 15 15 15 14 12 13 12 12
14 15 14 13 13 12 12 11 10 8 7 5 3 1 1 2 4 5 6 7 8 9 9 9 10 10 9 7 10 12 14 14 14 14 15 15 16 17 15 12 12 12 11
13 13 13 13 12 11 11 10 9 8 5 3 1 1 2 3 4 5 6 7 8 8 8 8 9 9 6 8 10 12 14 14 15 14 14 14 15 15 16 18 19 18 15
12 12 12 11 10 9 9 9 8 6 4 1 1 1 3 4 5 6 6 6 7 7 6 7 7 8 4 4 8 12 15 15 13 13 13 12 12 15 14 15 17 18 20
12 13 12 12 11 10 9 8 7 4 2 1 1 2 4 5 5 5 6 6 5 5 6 6 8 9 6 3 8 15 15 13 13 13 14 14 15 14 14 14 15 15 14
14 14 14 14 11 9 8 7 5 3 1 1 2 4 5 5 5 6 5 5 5 6 6 6 8 9 8 4 9 14 13 11 13 13 14 15 15 14 13 15 15 14 11
15 15 14 13 11 8 6 5 4 3 2 4 5 5 5 6 6 5 5 5 5 6 7 8 8 9 10 8 9 13 10 11 11 12 13 15 14 15 16 14 11 10 7
16 14 13 10 9 7 5 4 4 4 5 5 6 6 6 5 5 5 5 6 6 7 7 8 8 8 9 10 8 11 10 10 11 11 11 10 14 15 16 12 7 5 3
14 13 11 10 8 6 5 5 6 5 5 6 6 6 5 4 5 5 5 6 7 7 7 8 8 7 8 9 11 14 15 15 13 11 10 10 14 14 11 6 3 2 1
12 11 11 10 7 5 4 6 6 5 6 6 6 5 5 5 5 5 6 6 6 7 7 8 8 8 8 8 11 14 16 17 12 10 14 14 13 8 6 10 8 5 3
11 10 10 9 7 6 7 7 6 5 5 5 5 4 4 5 5 5 6 6 7 7 7 8 8 9 9 9 10 11 10 12 11 10 10 10 7 6 6 6 6 5 5
10 8 8 9 9 8 8 7 6 5 5 5 4 4 5 5 4 5 6 7 7 7 7 7 8 8 9 12 17 12 10 10 11 10 6 5 5 5 5 5 5 5 5
9 9 9 9 9 9 8 7 6 5 5 5 5 4 5 5 5 5 4 2 3 2 4 6 8 8 10 15 17 17 17 16 16 9 7 7 6 6 5 5 6 6 6
Wind_Direction
177 168 167 166 165 164 159 154 147 143 145 142 141 133 123 118 106 93 84 79 72 68 54 63 62 32 40 22 357 335 305 288 310 295 287 273 256 250 262 269 282 280 282
173 171 170 170 172 165 156 150 150 150 150 138 125 118 118 109 99 94 86 80 77 69 70 53 50 39 24 18 334 323 306 301 296 302 299 290 277 238 242 269 274 289 297
187 179 175 173 168 161 157 149 143 142 135 130 124 123 121 132 129 118 104 86 84 81 67 58 25 354 299 334 324 312 312 311 305 309 308 308 312 329 290 288 288 290 288
192 185 177 170 163 153 146 140 138 134 134 140 141 142 143 135 117 117 104 108 85 69 56 38 14 330 325 334 304 358 318 307 308 315 300 303 316 301 302 294 291 292 287
189 182 173 162 150 143 138 134 132 129 130 127 129 131 121 118 125 126 118 128 104 73 32 3 341 330 320 349 336 324 314 312 318 319 314 304 288 277 281 292 294 287 285
179 168 157 147 141 138 135 135 132 127 127 124 122 117 116 119 124 127 119 190 129 94 38 327 326 305 325 324 311 306 288 316 322 309 307 302 300 300 297 294 292 289 289
170 161 155 152 146 144 142 141 136 131 131 125 118 114 117 127 128 128 107 313 318 315 47 322 310 312 316 305 300 283 299 291 295 292 301 304 297 296 294 293 294 295 294
171 166 162 158 153 150 148 147 142 137 135 126 118 118 131 127 106 81 14 355 331 349 355 298 292 293 291 288 287 281 272 275 283 287 292 291 292 299 294 294 296 293 291
171 167 164 160 157 155 154 152 144 141 137 129 128 126 111 85 84 108 265 322 331 308 295 288 285 287 287 289 284 286 285 283 279 287 289 291 300 293 294 292 288 289 290
170 167 166 163 158 155 151 149 147 142 138 135 127 114 108 104 92 334 359 328 309 304 294 289 289 288 285 280 281 284 281 282 282 285 290 292 293 302 297 292 289 281 278
171 167 166 162 157 153 152 152 148 144 138 124 116 112 103 86 28 301 296 295 297 295 288 292 292 291 289 286 283 286 291 285 288 291 292 294 297 296 297 295 289 283 277
171 167 164 160 158 158 158 154 149 142 131 120 113 105 96 94 281 287 294 290 288 288 291 292 291 290 289 288 285 286 291 291 293 295 297 298 299 297 295 292 289 286 282
169 166 163 163 163 161 156 149 143 133 121 114 112 114 139 219 280 294 291 290 289 289 290 290 291 292 293 290 288 290 293 295 297 298 299 299 296 293 293 293 289 285 282
170 168 165 165 162 157 151 142 132 126 118 116 119 128 168 266 285 287 285 287 289 289 290 294 296 297 298 298 303 306 304 302 301 300 297 294 292 293 294 291 286 283 283
174 170 165 159 154 150 141 133 127 117 109 109 113 128 223 271 280 286 287 288 288 290 294 297 299 303 304 340 339 319 309 307 303 300 297 294 295 293 289 286 287 286 282
172 163 157 150 146 141 133 124 113 104 99 104 157 186 291 286 288 289 291 294 298 304 311 314 319 321 345 29 350 322 311 306 302 301 301 300 294 291 290 283 281 281 281
155 147 141 134 126 121 116 108 101 99 105 151 228 293 299 303 305 307 312 323 331 338 341 340 336 330 6 30 333 323 310 303 304 304 301 297 295 294 289 289 287 284 279
130 125 118 109 104 103 100 98 99 109 137 181 310 325 322 322 333 343 2 7 4 358 350 342 338 329 346 31 328 324 305 304 304 300 297 294 293 294 296 298 293 287 284
106 104 105 105 104 101 101 101 103 121 130 40 8 7 359 1 17 32 31 19 4 357 341 347 341 334 337 11 330 320 314 308 308 305 302 300 299 300 295 294 290 288 288
95 100 101 102 102 103 105 104 110 106 67 45 40 41 43 44 48 43 25 18 1 356 344 354 344 338 335 340 314 313 315 312 312 308 305 300 298 301 298 294 287 284 290
96 98 99 98 100 104 106 107 101 79 66 69 72 68 67 64 52 39 26 9 3 2 355 352 345 343 338 329 324 318 318 317 310 306 306 308 312 308 305 298 284 273 280
96 99 100 99 100 107 117 105 86 82 86 88 85 74 57 43 48 34 24 18 0 1 2 354 348 347 343 335 336 320 314 314 311 308 311 316 318 322 333 347 35 55 81
103 106 108 107 109 113 106 91 88 93 97 95 85 74 63 48 31 18 24 20 12 5 1 354 349 348 344 342 338 325 320 319 318 317 320 323 332 348 22 41 49 59 67
112 116 119 118 114 102 86 84 91 97 99 91 83 70 51 49 48 22 27 23 14 7 1 355 347 344 342 348 345 336 331 332 332 331 330 336 2 32 43 44 49 50 48
123 127 120 111 103 96 90 90 95 98 92 82 67 54 51 45 42 51 38 22 38 16 352 352 343 341 344 342 333 333 339 341 339 332 342 4 17 36 46 51 53 53 54
125 119 112 108 103 98 90 85 84 80 77 74 56 46 45 39 33 39 74 96 32 4 336 346 346 347 347 335 338 342 341 342 342 350 8 15 22 30 40 52 58 58 53